Other Surface Observations
Issued by NWS Tucson, AZ

Home | Current Version | Previous Version | Text Only | Print | Product List | Glossary On
Versions: 1 2 3 4 5 6 7 8 9 10 11 12 13 14 15 16 17 18 19 20 21 22 23 24 25 26 27 28 29 30 31 32 33 34 35 36 37 38 39 40 41 42 43 44 45 46 47 48 49 50
000
SXUS55 KTWC 181115
OSOTWC

WEATHER ROUNDUP FOR SOUTHEAST ARIZONA
NATIONAL WEATHER SERVICE TUCSON AZ
415 AM MST SAT NOV 18 2017

AZZ504>506-514-181215-
LOCATION       SKY/WX    TMP DP  RH WIND       PRES   REMARKS
TUCSON         CLEAR     56  32  40 SE6       30.10S
DAVIS-MONTHAN  CLEAR     55  33  44 S7        30.08S
CHILDRENS PARK N/A      N/A N/A  46 NW3               PIMA CO DEQ
ALVERNON/22ND  N/A       62 N/A N/A SW2               PIMA CO DEQ
CHERRY/GLENN   N/A       62 N/A N/A W3                PIMA CO DEQ
TANGERINE      N/A       58 N/A N/A NE5               PIMA CO DEQ
CONTL RANCH    N/A       56  36  47 S1                PIMA CO DEQ
GRANT/1ST      N/A       62  38  41 W3                PIMA CO DEQ
CRAYCROFT/22ND N/A       61  37  41 SW1               PIMA CO DEQ
GOLFLINKS/KOLB N/A       60  34  38 SE3               PIMA CO DEQ
AJO/12TH       N/A       59  35  40 S3                PIMA CO DEQ
FAIRGROUNDS    N/A       53 N/A N/A E4                PIMA CO DEQ
SAGUARO        N/A       53  33  47 NW2               *SABINO CYN
SAN CARLOS     N/A       54  33  45 NW3               *SAN CARLOS
GREEN VALLEY   N/A       54  32  43 S3                PIMA CO DEQ
HORSE CAMP CYN N/A       56  36  47 N4                *ARAVAIPA CYN
RINCON MTNS    N/A       41  37  87 W3G11             *NR MANNING CAMP
$$

AZZ509>511-181215-
LOCATION       SKY/WX    TMP DP  RH WIND       PRES   REMARKS
SAFFORD        CLEAR     54  32  43 NW9       30.08R
STRAY HORSE    N/A       39  27  62 NE2               *
TRAIL CABIN    N/A       45  32  59 SW3               *N OF GRANVILLE
BLACK HILLS    NOT AVBL
DRY LAKE       N/A       42  32  67 N8G13             *NATANES MTNS
NOON CREEK     N/A       53  34  48 SW6G10            *PINALENO MTNS
COLUMBINE      N/A       37  26  64 NW4G12            *PINALENO MTNS
GUTHRIE        N/A       50  33  51 NW22G30           *SW OF GUTHRIE
$$

AZZ502-503-513-181215-
LOCATION       SKY/WX    TMP DP  RH WIND       PRES   REMARKS
NOGALES        CLEAR     49  31  49 CALM      30.12S
SELLS          N/A       58  36  43 E3                *
SASABE         N/A       46  32  58 SW3               *ALTAR VLY
HOPKINS        N/A       48  39  70 W12G23            *SANTA RITA MTNS
CARR CYN       N/A       51  30  45 SW2               *W OF HEREFORD
$$

AZZ507-508-512-181215-
LOCATION       SKY/WX    TMP DP  RH WIND       PRES   REMARKS
SIERRA VISTA   PTCLDY    54  31  42 W9        30.17S
DOUGLAS        PTCLDY    50  28  42 W6        30.13R
EMPIRE MTNS    NOT AVBL
MULESHOE RANCH N/A       58  41  53 N10G16            *PRESERVE
HEADQUARTERS   N/A       43  30  59 E3                *CHIRICAHUA MTNS
$$

.............................NOTES.............................
THIS IS AN AUTOMATED COLLECTIVE WITH MINIMAL QUALITY CONTROL.
PIMA CO DEQ SITES HAVE NONSTANDARD WIND SENSOR HEIGHTS.
PIMA CO DEQ SITES DO NOT REPORT WIND GUSTS.
* INDICATES WIND SENSORS LOCATED AT 20 FEET INSTEAD OF 33 FEET.
..............................KEY..............................
SKY/WX - SKY CONDITION/WEATHER
TMP    - TEMPERATURE IN FAHRENHEIT
DP     - DEWPOINT IN FAHRENHEIT
RH     - RELATIVE HUMIDITY IN PERCENT
WIND   - DIRECTION AND SPEED IN MILES PER HOUR (MPH)
VRB    - VARIABLE WIND DIRECTION
PRES   - MEAN SEA LEVEL PRESSURE IN INCHES OF MERCURY
         F - FALLING PRESSURE   R - RISING PRESSURE
         S - STEADY PRESSURE
VSB    - VISIBILITY IN MILES
HX     - HEAT INDEX IN FAHRENHEIT
WCI    - WIND CHILL INDEX IN FAHRENHEIT
N/A    - NOT AVAILABLE
AFB    - AIR FORCE BASE
         DAVIS-MONTHAN IS DAVIS-MONTHAN AIR FORCE BASE
CYN    - CANYON
MTNS   - MOUNTAINS
NCA    - NATIONAL CONSERVATION AREA
NR     - NEAR
VLY    - VALLEY
CONTL  - CONTINENTAL
PIMA CO DEQ - PIMA COUNTY DEPT OF ENVIRONMENTAL QUALITY



USA.gov is the U.S. government's official web portal to all federal, state and local government web resources and services.